Preview of NWS' New Version of Forecast
This preview is not operational and should not be used for support decisions.

Regional Weather Roundup (RWR)

Issued by National Weather Service (NWS)

                            
000
ASUS43 KBIS 201910
RWRND 

NORTH DAKOTA REGIONAL WEATHER ROUNDUP
NATIONAL WEATHER SERVICE BISMARCK ND
100 PM CST WED FEB 20 2019

NOTE: "FAIR" INDICATES FEW OR NO CLOUDS BELOW 12,000 FEET WITH NO
SIGNIFICANT WEATHER AND/OR OBSTRUCTIONS TO VISIBILITY.


NDZ001>003-009>011-017-202000-
NORTHWEST NORTH DAKOTA
  
CITY           SKY/WX    TMP DP  RH WIND       PRES   REMARKS
WILLISTON      LGT SNOW  12   3  67 NW3       29.69F                  
MINOT          LGT SNOW  13   5  70 N3        29.70F                  
$$
 
NDZ018>021-031>035-040>046-202000-
SOUTHWEST NORTH DAKOTA
  
CITY           SKY/WX    TMP DP  RH WIND       PRES   REMARKS
BISMARCK       LGT SNOW  16  10  77 N8        29.66F WCI   5          
DICKINSON      FLURRIES   8   1  73 CALM      29.59F                  
GARRISON         N/A     11   6  81 NW3       29.67F                  
HETTINGER ARPT CLOUDY     8   3  80 NW8       29.61F WCI  -4          
$$
 
NDZ004>008-012>016-024-026-027-054-202000-
NORTHEAST NORTH DAKOTA
  
CITY           SKY/WX    TMP DP  RH WIND       PRES   REMARKS
GRAND FORKS    LGT SNOW  18  14  84 E15       29.73F VSB 1   WCI   4  
DEVILS LAKE    LGT SNOW  13   9  84 NE10      29.70F FOG     WCI   0  
$$
 
NDZ022-023-025-028>030-036>039-047>053-202000-
SOUTHEAST NORTH DAKOTA
  
CITY           SKY/WX    TMP DP  RH WIND       PRES   REMARKS
FARGO          SNOW      19  16  88 NE13      29.64F VSB 1/2 WCI   6  
JAMESTOWN      LGT SNOW  15  11  83 N13       29.62F VSB 1   WCI   1  
$$